Time,TemperatureF,DewpointF,PressureIn,WindDirection,WindDirectionDegrees,WindSpeedMPH,WindSpeedGustMPH,Humidity,HourlyPrecipIn,Conditions,Clouds,dailyrainin,SoftwareType,DateUTC
2013-07-09 00:03:00,80.6,73.1,29.95,East,82,0.0,0.0,78,0.00,,SKC,0.00,VWS V13.01,2013-07-09 05:03:00,
2013-07-09 00:08:00,80.6,73.1,29.95,East,91,0.0,0.0,78,0.00,,SKC,0.00,VWS V13.01,2013-07-09 05:08:00,
2013-07-09 00:13:00,80.6,73.1,29.95,East,96,0.0,0.0,78,0.00,,SKC,0.00,VWS V13.01,2013-07-09 05:13:00,
2013-07-09 00:18:00,80.6,72.7,29.95,SE,124,0.0,4.0,77,0.00,,SKC,0.00,VWS V13.01,2013-07-09 05:18:00,
2013-07-09 00:23:00,80.7,72.4,29.95,SE,146,0.0,1.0,76,0.00,,SKC,0.00,VWS V13.01,2013-07-09 05:23:00,
2013-07-09 00:28:00,80.8,72.5,29.95,SE,133,5.0,5.0,76,0.00,,SKC,0.00,VWS V13.01,2013-07-09 05:28:00,
2013-07-09 00:33:00,80.9,72.2,29.95,SE,133,0.0,2.0,75,0.00,,SKC,0.00,VWS V13.01,2013-07-09 05:33:00,
2013-07-09 00:38:00,81.0,71.9,29.95,South,174,0.0,0.0,74,0.00,,SKC,0.00,VWS V13.01,2013-07-09 05:38:00,
2013-07-09 00:43:00,81.1,72.0,29.95,SE,142,2.0,2.0,74,0.00,,SKC,0.00,VWS V13.01,2013-07-09 05:43:00,
2013-07-09 00:48:00,81.2,72.1,29.95,South,176,0.0,0.0,74,0.00,,SKC,0.00,VWS V13.01,2013-07-09 05:48:00,
2013-07-09 00:53:00,81.2,71.7,29.95,SSE,150,0.0,5.0,73,0.00,,SKC,0.00,VWS V13.01,2013-07-09 05:53:00,
2013-07-09 00:58:00,81.2,71.7,29.95,South,187,0.0,8.0,73,0.00,,SKC,0.00,VWS V13.01,2013-07-09 05:58:00,
2013-07-09 01:03:00,81.2,71.3,29.95,SE,145,0.0,5.0,72,0.00,,SKC,0.00,VWS V13.01,2013-07-09 06:03:00,
2013-07-09 01:08:00,81.2,71.7,29.95,SSW,203,0.0,1.0,73,0.00,,SKC,0.00,VWS V13.01,2013-07-09 06:08:00,
2013-07-09 01:13:00,81.1,71.6,29.95,South,174,0.0,0.0,73,0.00,,SKC,0.00,VWS V13.01,2013-07-09 06:13:00,
2013-07-09 01:18:00,81.0,71.5,29.95,South,190,0.0,1.0,73,0.00,,SKC,0.00,VWS V13.01,2013-07-09 06:18:00,
2013-07-09 01:23:00,80.8,71.3,29.95,South,179,0.0,0.0,73,0.00,,SKC,0.00,VWS V13.01,2013-07-09 06:23:00,
2013-07-09 01:28:00,80.7,71.2,29.94,SSW,204,0.0,0.0,73,0.00,,SKC,0.00,VWS V13.01,2013-07-09 06:28:00,
2013-07-09 01:33:00,80.6,70.8,29.94,SSW,201,0.0,1.0,72,0.00,,SKC,0.00,VWS V13.01,2013-07-09 06:33:00,
2013-07-09 01:38:00,80.5,70.7,29.94,SSW,197,0.0,2.0,72,0.00,,SKC,0.00,VWS V13.01,2013-07-09 06:38:00,
2013-07-09 01:43:00,80.4,70.6,29.95,SSW,200,4.0,8.0,72,0.00,,SKC,0.00,VWS V13.01,2013-07-09 06:43:00,
2013-07-09 01:48:00,80.5,70.2,29.95,South,184,0.0,5.0,71,0.00,,SKC,0.00,VWS V13.01,2013-07-09 06:48:00,
2013-07-09 01:53:00,80.6,70.3,29.95,WSW,239,0.0,0.0,71,0.00,,SKC,0.00,VWS V13.01,2013-07-09 06:53:00,
2013-07-09 01:58:00,80.6,70.3,29.95,South,174,0.0,2.0,71,0.00,,SKC,0.00,VWS V13.01,2013-07-09 06:58:00,
2013-07-09 02:03:00,80.7,70.0,29.94,South,189,0.0,0.0,70,0.00,,SKC,0.00,VWS V13.01,2013-07-09 07:03:00,
2013-07-09 02:08:00,80.7,70.0,29.95,SSW,199,0.0,0.0,70,0.00,,SKC,0.00,VWS V13.01,2013-07-09 07:08:00,
2013-07-09 02:13:00,80.7,70.4,29.95,West,274,0.0,4.0,71,0.00,,SKC,0.00,VWS V13.01,2013-07-09 07:13:00,
2013-07-09 02:18:00,80.6,71.6,29.96,West,275,0.0,0.0,74,0.01,,SKC,0.01,VWS V13.01,2013-07-09 07:18:00,
2013-07-09 02:23:00,80.3,71.3,29.95,West,275,0.0,0.0,74,0.01,,SKC,0.01,VWS V13.01,2013-07-09 07:23:00,
2013-07-09 02:28:00,80.0,71.4,29.94,WNW,299,0.0,0.0,75,0.01,,SKC,0.01,VWS V13.01,2013-07-09 07:28:00,
2013-07-09 02:33:00,79.8,71.9,29.94,NW,316,0.0,0.0,77,0.01,,SKC,0.01,VWS V13.01,2013-07-09 07:33:00,
2013-07-09 02:38:00,79.3,71.5,29.95,NW,316,0.0,0.0,77,0.01,,SKC,0.01,VWS V13.01,2013-07-09 07:38:00,
2013-07-09 02:43:00,79.1,71.7,29.95,NW,317,0.0,0.0,78,0.01,,SKC,0.01,VWS V13.01,2013-07-09 07:43:00,
2013-07-09 02:48:00,78.7,71.3,29.95,NW,316,0.0,0.0,78,0.01,,SKC,0.01,VWS V13.01,2013-07-09 07:48:00,
2013-07-09 02:53:00,78.5,71.8,29.96,NW,316,0.0,0.0,80,0.01,,SKC,0.01,VWS V13.01,2013-07-09 07:53:00,
2013-07-09 02:58:00,78.2,71.9,29.96,NW,316,0.0,0.0,81,0.01,,SKC,0.01,VWS V13.01,2013-07-09 07:58:00,
2013-07-09 03:03:00,77.8,71.9,29.95,NW,316,0.0,0.0,82,0.01,,SKC,0.01,VWS V13.01,2013-07-09 08:03:00,
2013-07-09 03:08:00,77.5,71.6,29.96,NW,316,0.0,0.0,82,0.01,,SKC,0.01,VWS V13.01,2013-07-09 08:08:00,
2013-07-09 03:13:00,77.2,71.3,29.96,NW,316,0.0,0.0,82,0.01,,SKC,0.01,VWS V13.01,2013-07-09 08:13:00,
2013-07-09 03:18:00,77.1,70.8,29.96,NW,316,0.0,0.0,81,0.01,,SKC,0.01,VWS V13.01,2013-07-09 08:18:00,
2013-07-09 03:23:00,77.1,71.2,29.96,NW,316,0.0,0.0,82,0.00,,SKC,0.01,VWS V13.01,2013-07-09 08:23:00,
2013-07-09 03:28:00,77.1,71.2,29.96,NW,316,0.0,0.0,82,0.00,,SKC,0.01,VWS V13.01,2013-07-09 08:28:00,
2013-07-09 03:33:00,77.0,71.1,29.96,NW,316,0.0,0.0,82,0.00,,SKC,0.01,VWS V13.01,2013-07-09 08:33:00,
2013-07-09 03:38:00,77.0,71.4,29.95,NW,316,0.0,0.0,83,0.00,,SKC,0.01,VWS V13.01,2013-07-09 08:38:00,
2013-07-09 03:43:00,76.9,71.3,29.95,NW,316,0.0,0.0,83,0.00,,SKC,0.01,VWS V13.01,2013-07-09 08:43:00,
2013-07-09 03:48:00,76.7,71.2,29.95,NW,316,0.0,0.0,83,0.00,,SKC,0.01,VWS V13.01,2013-07-09 08:48:00,
2013-07-09 03:53:00,76.6,71.4,29.95,NW,316,0.0,0.0,84,0.00,,SKC,0.01,VWS V13.01,2013-07-09 08:53:00,
2013-07-09 03:58:00,76.3,71.1,29.95,NW,316,0.0,0.0,84,0.00,,SKC,0.01,VWS V13.01,2013-07-09 08:58:00,
2013-07-09 04:03:00,76.1,70.9,29.95,NW,316,0.0,0.0,84,0.00,,SKC,0.01,VWS V13.01,2013-07-09 09:03:00,
2013-07-09 04:08:00,76.0,70.8,29.95,NW,318,0.0,0.0,84,0.00,,SKC,0.01,VWS V13.01,2013-07-09 09:08:00,
2013-07-09 04:13:00,75.8,70.6,29.95,NW,318,0.0,0.0,84,0.00,,SKC,0.01,VWS V13.01,2013-07-09 09:13:00,
2013-07-09 04:18:00,75.8,71.0,29.95,NW,318,0.0,0.0,85,0.00,,SKC,0.01,VWS V13.01,2013-07-09 09:18:00,
2013-07-09 04:23:00,75.7,70.5,29.95,NE,43,0.0,0.0,84,0.00,,SKC,0.01,VWS V13.01,2013-07-09 09:23:00,
2013-07-09 04:28:00,75.7,70.5,29.95,NE,43,0.0,0.0,84,0.00,,SKC,0.01,VWS V13.01,2013-07-09 09:28:00,
2013-07-09 04:33:00,75.8,70.6,29.94,ENE,60,0.0,0.0,84,0.00,,SKC,0.01,VWS V13.01,2013-07-09 09:33:00,
2013-07-09 04:38:00,76.0,70.8,29.94,East,84,3.0,6.0,84,0.00,,SKC,0.01,VWS V13.01,2013-07-09 09:38:00,
2013-07-09 04:43:00,76.3,70.8,29.93,East,86,0.0,5.0,83,0.00,,SKC,0.01,VWS V13.01,2013-07-09 09:43:00,
2013-07-09 04:48:00,76.4,70.5,29.93,East,85,0.0,1.0,82,0.00,,SKC,0.01,VWS V13.01,2013-07-09 09:48:00,
2013-07-09 04:53:00,76.6,70.7,29.92,East,90,0.0,1.0,82,0.00,,SKC,0.01,VWS V13.01,2013-07-09 09:53:00,
2013-07-09 04:58:00,76.7,70.4,29.92,East,80,0.0,4.0,81,0.00,,SKC,0.01,VWS V13.01,2013-07-09 09:58:00,
2013-07-09 05:03:00,76.8,70.5,29.92,ESE,106,0.0,0.0,81,0.00,,SKC,0.01,VWS V13.01,2013-07-09 10:03:00,
2013-07-09 05:08:00,76.9,70.3,29.92,SE,131,0.0,0.0,80,0.00,,SKC,0.01,VWS V13.01,2013-07-09 10:08:00,
2013-07-09 05:13:00,76.9,70.3,29.92,SE,131,0.0,0.0,80,0.00,,SKC,0.01,VWS V13.01,2013-07-09 10:13:00,
2013-07-09 05:18:00,76.9,70.3,29.92,SE,127,0.0,0.0,80,0.00,,SKC,0.01,VWS V13.01,2013-07-09 10:18:00,
2013-07-09 05:23:00,76.9,70.3,29.91,SE,143,4.0,6.0,80,0.00,,SKC,0.01,VWS V13.01,2013-07-09 10:23:00,
2013-07-09 05:28:00,76.9,70.3,29.92,SSW,193,0.0,7.0,80,0.00,,SKC,0.01,VWS V13.01,2013-07-09 10:28:00,
2013-07-09 05:33:00,77.0,70.4,29.92,SE,140,0.0,2.0,80,0.00,,SKC,0.01,VWS V13.01,2013-07-09 10:33:00,
2013-07-09 05:38:00,77.0,70.0,29.91,SE,146,0.0,7.0,79,0.00,,SKC,0.01,VWS V13.01,2013-07-09 10:38:00,
2013-07-09 05:43:00,77.3,70.3,29.91,SE,136,0.0,6.0,79,0.00,,SKC,0.01,VWS V13.01,2013-07-09 10:43:00,
2013-07-09 05:48:00,77.4,70.0,29.91,NE,41,0.0,1.0,78,0.00,,SKC,0.01,VWS V13.01,2013-07-09 10:48:00,
2013-07-09 05:53:00,77.5,70.1,29.91,East,100,0.0,1.0,78,0.00,,SKC,0.01,VWS V13.01,2013-07-09 10:53:00,
2013-07-09 05:58:00,77.6,70.2,29.92,South,172,0.0,2.0,78,0.00,,SKC,0.01,VWS V13.01,2013-07-09 10:58:00,
2013-07-09 06:03:00,77.5,70.1,29.93,SSW,195,0.0,0.0,78,0.00,,SKC,0.01,VWS V13.01,2013-07-09 11:03:00,
2013-07-09 06:08:00,77.5,69.7,29.93,SSW,193,0.0,11.0,77,0.00,,SKC,0.01,VWS V13.01,2013-07-09 11:08:00,
2013-07-09 06:13:00,77.6,69.8,29.93,SSE,155,0.0,4.0,77,0.00,,SKC,0.01,VWS V13.01,2013-07-09 11:13:00,
2013-07-09 06:18:00,77.7,69.5,29.93,SE,137,0.0,11.0,76,0.00,,SKC,0.01,VWS V13.01,2013-07-09 11:18:00,
2013-07-09 06:23:00,77.8,69.6,29.93,SSE,153,0.0,0.0,76,0.00,,SKC,0.01,VWS V13.01,2013-07-09 11:23:00,
2013-07-09 06:28:00,77.9,69.7,29.93,South,184,0.0,0.0,76,0.00,,SKC,0.01,VWS V13.01,2013-07-09 11:28:00,
2013-07-09 06:33:00,77.9,69.7,29.94,South,187,0.0,0.0,76,0.00,,SKC,0.01,VWS V13.01,2013-07-09 11:33:00,
2013-07-09 06:38:00,77.9,70.1,29.94,East,87,0.0,1.0,77,0.00,,SKC,0.01,VWS V13.01,2013-07-09 11:38:00,
2013-07-09 06:43:00,77.8,70.0,29.94,ESE,116,1.0,1.0,77,0.00,,SKC,0.01,VWS V13.01,2013-07-09 11:43:00,
2013-07-09 06:48:00,77.8,70.4,29.94,SSE,150,0.0,7.0,78,0.00,,SKC,0.01,VWS V13.01,2013-07-09 11:48:00,
2013-07-09 06:53:00,77.8,70.4,29.93,SE,126,0.0,2.0,78,0.00,,SKC,0.01,VWS V13.01,2013-07-09 11:53:00,
2013-07-09 06:58:00,77.7,70.7,29.93,South,169,0.0,0.0,79,0.00,,SKC,0.01,VWS V13.01,2013-07-09 11:58:00,
2013-07-09 07:03:00,77.6,70.9,29.93,ESE,112,0.0,0.0,80,0.00,,SKC,0.01,VWS V13.01,2013-07-09 12:03:00,
2013-07-09 07:08:00,77.4,71.1,29.93,SE,124,0.0,0.0,81,0.00,,SKC,0.01,VWS V13.01,2013-07-09 12:08:00,
2013-07-09 07:13:00,77.3,71.0,29.93,South,172,0.0,2.0,81,0.00,,SKC,0.01,VWS V13.01,2013-07-09 12:13:00,
2013-07-09 07:18:00,77.0,71.1,29.93,SSW,196,2.0,5.0,82,0.00,,SKC,0.01,VWS V13.01,2013-07-09 12:18:00,
2013-07-09 07:23:00,76.8,70.9,29.93,SSW,200,0.0,0.0,82,0.00,,SKC,0.01,VWS V13.01,2013-07-09 12:23:00,
2013-07-09 07:28:00,76.7,70.8,29.94,SSW,195,0.0,0.0,82,0.00,,SKC,0.01,VWS V13.01,2013-07-09 12:28:00,
2013-07-09 07:33:00,76.8,70.9,29.94,SSW,193,0.0,0.0,82,0.00,,SKC,0.01,VWS V13.01,2013-07-09 12:33:00,
2013-07-09 07:39:00,76.9,71.3,29.95,SSW,201,0.0,7.0,83,0.00,,SKC,0.01,VWS V13.01,2013-07-09 12:39:00,
2013-07-09 07:44:00,77.0,71.1,29.95,SSW,201,0.0,0.0,82,0.00,,SKC,0.01,VWS V13.01,2013-07-09 12:44:00,
2013-07-09 07:49:00,77.1,71.2,29.95,SSW,199,0.0,0.0,82,0.00,,SKC,0.01,VWS V13.01,2013-07-09 12:49:00,
2013-07-09 07:55:00,77.2,71.3,29.95,SW,217,0.0,0.0,82,0.00,,SKC,0.01,VWS V13.01,2013-07-09 12:55:00,
2013-07-09 08:00:00,77.2,71.3,29.96,SW,217,0.0,0.0,82,0.00,,SKC,0.01,VWS V13.01,2013-07-09 13:00:00,
2013-07-09 08:05:00,77.2,71.3,29.96,SW,217,0.0,0.0,82,0.00,,SKC,0.01,VWS V13.01,2013-07-09 13:05:00,
2013-07-09 08:10:00,77.3,71.7,29.96,SW,217,0.0,0.0,83,0.00,,SKC,0.01,VWS V13.01,2013-07-09 13:10:00,
2013-07-09 08:15:00,77.6,72.0,29.96,SW,225,0.0,0.0,83,0.00,,SKC,0.01,VWS V13.01,2013-07-09 13:15:00,
2013-07-09 08:20:00,77.8,71.9,29.97,SW,225,0.0,0.0,82,0.00,,SKC,0.01,VWS V13.01,2013-07-09 13:20:00,
2013-07-09 08:25:00,78.1,71.8,29.96,SW,225,0.0,0.0,81,0.00,,SKC,0.01,VWS V13.01,2013-07-09 13:25:00,
2013-07-09 08:30:00,78.5,71.8,29.97,SW,225,0.0,0.0,80,0.00,,SKC,0.01,VWS V13.01,2013-07-09 13:30:00,
2013-07-09 08:36:00,79.1,72.0,29.98,North,353,2.0,6.0,79,0.00,,SKC,0.01,VWS V13.01,2013-07-09 13:36:00,
2013-07-09 08:41:00,79.5,72.4,29.98,North,353,0.0,4.0,79,0.00,,SKC,0.01,VWS V13.01,2013-07-09 13:41:00,
2013-07-09 08:46:00,80.1,72.6,29.98,North,353,0.0,0.0,78,0.00,,SKC,0.01,VWS V13.01,2013-07-09 13:46:00,
2013-07-09 08:51:00,80.6,72.7,29.98,North,353,0.0,0.0,77,0.00,,SKC,0.01,VWS V13.01,2013-07-09 13:51:00,
2013-07-09 08:56:00,81.2,72.9,29.98,North,353,0.0,1.0,76,0.00,,SKC,0.01,VWS V13.01,2013-07-09 13:56:00,
2013-07-09 09:01:00,81.8,73.1,29.99,NNE,12,0.0,1.0,75,0.00,,SKC,0.01,VWS V13.01,2013-07-09 14:01:00,
2013-07-09 09:02:00,81.9,73.2,29.99,NNE,12,0.0,0.0,75,0.00,,SKC,0.01,VWS V13.01,2013-07-09 14:02:00,
2013-07-09 09:07:00,82.5,73.0,29.99,NE,43,0.0,0.0,73,0.00,,SKC,0.01,VWS V13.01,2013-07-09 14:07:00,
2013-07-09 09:12:00,83.0,72.6,29.99,NE,40,0.0,1.0,71,0.00,,SKC,0.01,VWS V13.01,2013-07-09 14:12:00,
2013-07-09 09:17:00,83.6,73.2,29.99,NE,53,0.0,0.0,71,0.00,,SKC,0.01,VWS V13.01,2013-07-09 14:17:00,
2013-07-09 09:22:00,84.1,73.3,29.99,NE,52,0.0,0.0,70,0.00,,SKC,0.01,VWS V13.01,2013-07-09 14:22:00,
2013-07-09 09:27:00,84.5,73.2,29.99,NE,52,0.0,0.0,69,0.00,,SKC,0.01,VWS V13.01,2013-07-09 14:27:00,
2013-07-09 09:32:00,84.8,73.1,29.98,East,89,0.0,1.0,68,0.00,,SKC,0.01,VWS V13.01,2013-07-09 14:32:00,
2013-07-09 09:37:00,84.9,73.6,29.98,ESE,104,0.0,0.0,69,0.00,,SKC,0.01,VWS V13.01,2013-07-09 14:37:00,
2013-07-09 09:42:00,85.6,73.4,29.97,East,95,0.0,0.0,67,0.00,,SKC,0.01,VWS V13.01,2013-07-09 14:42:00,
2013-07-09 09:47:00,85.8,74.0,29.97,East,86,0.0,0.0,68,0.00,,SKC,0.01,VWS V13.01,2013-07-09 14:47:00,
2013-07-09 09:52:00,86.3,73.6,29.97,SE,130,0.0,0.0,66,0.00,,SKC,0.01,VWS V13.01,2013-07-09 14:52:00,
2013-07-09 09:57:00,85.7,73.5,29.97,South,178,0.0,0.0,67,0.00,,SKC,0.01,VWS V13.01,2013-07-09 14:57:00,
2013-07-09 10:03:00,85.8,73.6,29.96,South,173,0.0,0.0,67,0.00,,SKC,0.01,VWS V13.01,2013-07-09 15:03:00,
2013-07-09 10:08:00,85.9,74.1,29.96,SW,232,0.0,0.0,68,0.00,,SKC,0.01,VWS V13.01,2013-07-09 15:08:00,
2013-07-09 10:13:00,86.0,73.8,29.96,South,178,0.0,0.0,67,0.00,,SKC,0.01,VWS V13.01,2013-07-09 15:13:00,
2013-07-09 10:18:00,86.4,74.6,29.96,ENE,68,0.0,0.0,68,0.00,,SKC,0.01,VWS V13.01,2013-07-09 15:18:00,
2013-07-09 10:23:00,86.9,74.6,29.96,South,189,0.0,6.0,67,0.00,,SKC,0.01,VWS V13.01,2013-07-09 15:23:00,
2013-07-09 10:28:00,86.9,73.7,29.96,East,80,4.0,4.0,65,0.00,,SKC,0.01,VWS V13.01,2013-07-09 15:28:00,
2013-07-09 10:33:00,87.0,74.3,29.96,SSE,162,0.0,0.0,66,0.00,,SKC,0.01,VWS V13.01,2013-07-09 15:33:00,
2013-07-09 10:38:00,86.9,74.6,29.96,South,172,0.0,0.0,67,0.00,,SKC,0.01,VWS V13.01,2013-07-09 15:38:00,
2013-07-09 10:43:00,86.5,73.3,29.96,SSW,198,0.0,0.0,65,0.00,,SKC,0.01,VWS V13.01,2013-07-09 15:43:00,
2013-07-09 10:48:00,86.1,74.3,29.96,SSW,193,0.0,4.0,68,0.00,,SKC,0.01,VWS V13.01,2013-07-09 15:48:00,
2013-07-09 10:53:00,87.6,74.8,29.95,ESE,103,0.0,0.0,66,0.00,,SKC,0.01,VWS V13.01,2013-07-09 15:53:00,
2013-07-09 10:58:00,88.5,75.2,29.95,South,169,0.0,0.0,65,0.00,,SKC,0.01,VWS V13.01,2013-07-09 15:58:00,
2013-07-09 11:03:00,88.2,75.0,29.95,SSW,194,0.0,1.0,65,0.00,,SKC,0.01,VWS V13.01,2013-07-09 16:03:00,
2013-07-09 11:08:00,87.7,74.5,29.95,South,170,0.0,0.0,65,0.00,,SKC,0.01,VWS V13.01,2013-07-09 16:08:00,
2013-07-09 11:13:00,87.9,75.6,29.95,SW,226,0.0,1.0,67,0.00,,SKC,0.01,VWS V13.01,2013-07-09 16:13:00,
2013-07-09 11:18:00,87.6,75.3,29.95,South,187,0.0,7.0,67,0.00,,SKC,0.01,VWS V13.01,2013-07-09 16:18:00,
2013-07-09 11:23:00,87.2,74.9,29.95,South,186,0.0,0.0,67,0.00,,SKC,0.01,VWS V13.01,2013-07-09 16:23:00,
2013-07-09 11:28:00,87.3,74.6,29.95,ESE,114,0.0,0.0,66,0.00,,SKC,0.01,VWS V13.01,2013-07-09 16:28:00,
2013-07-09 11:33:00,88.2,75.0,29.95,SSW,198,0.0,1.0,65,0.00,,SKC,0.01,VWS V13.01,2013-07-09 16:33:00,
2013-07-09 11:38:00,88.4,74.7,29.95,West,273,5.0,8.0,64,0.00,,SKC,0.01,VWS V13.01,2013-07-09 16:38:00,
2013-07-09 11:43:00,88.6,73.9,29.95,SW,234,0.0,0.0,62,0.00,,SKC,0.01,VWS V13.01,2013-07-09 16:43:00,
2013-07-09 11:48:00,89.5,76.2,29.95,West,262,0.0,1.0,65,0.00,,SKC,0.01,VWS V13.01,2013-07-09 16:48:00,
2013-07-09 11:54:00,90.1,75.3,29.95,ESE,110,0.0,5.0,62,0.00,,SKC,0.01,VWS V13.01,2013-07-09 16:54:00,
2013-07-09 11:59:00,90.5,75.7,29.95,SSW,213,3.0,3.0,62,0.00,,SKC,0.01,VWS V13.01,2013-07-09 16:59:00,
2013-07-09 12:04:00,89.5,75.2,29.95,SW,219,0.0,0.0,63,0.00,,SKC,0.01,VWS V13.01,2013-07-09 17:04:00,
2013-07-09 12:09:00,89.4,75.2,29.95,WSW,251,0.0,0.0,63,0.00,,SKC,0.01,VWS V13.01,2013-07-09 17:09:00,
2013-07-09 12:14:00,90.2,74.9,29.95,WSW,239,0.0,4.0,61,0.00,,SKC,0.01,VWS V13.01,2013-07-09 17:14:00,
2013-07-09 12:19:00,88.9,74.7,29.95,SW,222,0.0,5.0,63,0.00,,SKC,0.01,VWS V13.01,2013-07-09 17:19:00,
2013-07-09 12:24:00,88.3,74.6,29.95,WNW,286,0.0,6.0,64,0.00,,SKC,0.01,VWS V13.01,2013-07-09 17:24:00,
2013-07-09 12:29:00,88.1,74.4,29.95,South,186,0.0,0.0,64,0.00,,SKC,0.01,VWS V13.01,2013-07-09 17:29:00,
2013-07-09 12:34:00,88.3,75.1,29.94,West,267,0.0,0.0,65,0.00,,SKC,0.01,VWS V13.01,2013-07-09 17:34:00,
2013-07-09 12:39:00,89.6,76.3,29.94,SSW,201,2.0,6.0,65,0.00,,SKC,0.01,VWS V13.01,2013-07-09 17:39:00,
2013-07-09 12:44:00,89.7,75.4,29.94,WSW,241,0.0,5.0,63,0.00,,SKC,0.01,VWS V13.01,2013-07-09 17:44:00,
2013-07-09 12:49:00,89.8,76.5,29.94,South,178,0.0,3.0,65,0.00,,SKC,0.01,VWS V13.01,2013-07-09 17:49:00,
2013-07-09 12:54:00,90.1,75.3,29.94,WSW,239,0.0,5.0,62,0.00,,SKC,0.01,VWS V13.01,2013-07-09 17:54:00,
2013-07-09 13:00:00,90.8,76.9,29.94,ESE,122,1.0,4.0,64,0.00,,SKC,0.01,VWS V13.01,2013-07-09 18:00:00,
2013-07-09 13:05:00,91.6,76.7,29.94,WSW,257,0.0,0.0,62,0.00,,SKC,0.01,VWS V13.01,2013-07-09 18:05:00,
2013-07-09 13:10:00,91.8,76.9,29.94,SSW,197,0.0,0.0,62,0.00,,SKC,0.01,VWS V13.01,2013-07-09 18:10:00,
2013-07-09 13:15:00,92.1,76.2,29.94,West,264,0.0,6.0,60,0.00,,SKC,0.01,VWS V13.01,2013-07-09 18:15:00,
2013-07-09 13:20:00,91.4,75.1,29.93,SW,221,0.0,6.0,59,0.00,,SKC,0.01,VWS V13.01,2013-07-09 18:20:00,
2013-07-09 13:25:00,91.2,76.4,29.93,SSW,201,0.0,0.0,62,0.00,,SKC,0.01,VWS V13.01,2013-07-09 18:25:00,
2013-07-09 13:30:00,91.6,75.8,29.93,SSW,195,0.0,4.0,60,0.00,,SKC,0.01,VWS V13.01,2013-07-09 18:30:00,
2013-07-09 13:35:00,91.9,77.0,29.93,SW,234,0.0,0.0,62,0.00,,SKC,0.01,VWS V13.01,2013-07-09 18:35:00,
2013-07-09 13:40:00,91.9,76.0,29.93,West,272,0.0,0.0,60,0.00,,SKC,0.01,VWS V13.01,2013-07-09 18:40:00,
2013-07-09 13:45:00,93.2,77.3,29.93,West,262,0.0,2.0,60,0.00,,SKC,0.01,VWS V13.01,2013-07-09 18:45:00,
2013-07-09 13:50:00,92.3,75.4,29.93,SW,214,0.0,0.0,58,0.00,,SKC,0.01,VWS V13.01,2013-07-09 18:50:00,
2013-07-09 13:55:00,93.0,77.6,29.93,SSE,166,0.0,6.0,61,0.00,,SKC,0.01,VWS V13.01,2013-07-09 18:55:00,
2013-07-09 14:00:00,93.4,77.4,29.93,SE,128,0.0,5.0,60,0.00,,SKC,0.01,VWS V13.01,2013-07-09 19:00:00,
2013-07-09 14:05:00,93.0,75.0,29.93,West,265,0.0,2.0,56,0.00,,SKC,0.01,VWS V13.01,2013-07-09 19:05:00,
2013-07-09 14:10:00,92.3,75.9,29.93,WSW,240,0.0,4.0,59,0.00,,SKC,0.01,VWS V13.01,2013-07-09 19:10:00,
2013-07-09 14:15:00,92.7,76.3,29.93,WSW,247,0.0,0.0,59,0.00,,SKC,0.01,VWS V13.01,2013-07-09 19:15:00,
2013-07-09 14:21:00,93.5,76.5,29.93,ESE,120,0.0,0.0,58,0.00,,SKC,0.01,VWS V13.01,2013-07-09 19:21:00,
2013-07-09 14:26:00,94.6,76.5,29.93,SE,139,1.0,5.0,56,0.00,,SKC,0.01,VWS V13.01,2013-07-09 19:26:00,
2013-07-09 14:31:00,94.3,76.2,29.93,SW,232,0.0,0.0,56,0.00,,SKC,0.01,VWS V13.01,2013-07-09 19:31:00,
2013-07-09 14:36:00,95.4,75.6,29.93,West,262,0.0,3.0,53,0.00,,SKC,0.01,VWS V13.01,2013-07-09 19:36:00,
2013-07-09 14:37:00,95.3,76.0,29.93,West,261,0.0,1.0,54,0.00,,SKC,0.01,VWS V13.01,2013-07-09 19:37:00,
2013-07-09 14:42:00,94.0,75.4,29.93,SW,227,0.0,0.0,55,0.00,,SKC,0.01,VWS V13.01,2013-07-09 19:42:00,
2013-07-09 14:47:00,94.6,75.9,29.93,SW,228,0.0,0.0,55,0.00,,SKC,0.01,VWS V13.01,2013-07-09 19:47:00,
2013-07-09 14:52:00,96.7,76.8,29.93,NW,322,0.0,0.0,53,0.00,,SKC,0.01,VWS V13.01,2013-07-09 19:52:00,
2013-07-09 14:57:00,96.7,76.8,29.93,WSW,239,1.0,1.0,53,0.00,,SKC,0.01,VWS V13.01,2013-07-09 19:57:00,
2013-07-09 15:02:00,96.4,76.5,29.93,SW,219,0.0,0.0,53,0.00,,SKC,0.01,VWS V13.01,2013-07-09 20:02:00,
2013-07-09 15:07:00,97.5,75.7,29.93,SW,221,0.0,0.0,50,0.00,,SKC,0.01,VWS V13.01,2013-07-09 20:07:00,
2013-07-09 15:12:00,98.8,76.9,29.93,WNW,291,0.0,1.0,50,0.00,,SKC,0.01,VWS V13.01,2013-07-09 20:12:00,
2013-07-09 15:17:00,97.9,76.1,29.93,WNW,285,0.0,4.0,50,0.00,,SKC,0.01,VWS V13.01,2013-07-09 20:17:00,
2013-07-09 15:22:00,97.4,75.1,29.93,WNW,285,0.0,0.0,49,0.00,,SKC,0.01,VWS V13.01,2013-07-09 20:22:00,
2013-07-09 15:27:00,98.8,77.5,29.93,WNW,285,0.0,0.0,51,0.00,,SKC,0.01,VWS V13.01,2013-07-09 20:27:00,
2013-07-09 15:33:00,99.3,76.2,29.93,WNW,292,0.0,1.0,48,0.00,,SKC,0.01,VWS V13.01,2013-07-09 20:33:00,
2013-07-09 15:38:00,100.1,77.5,29.93,NW,319,0.0,2.0,49,0.00,,SKC,0.01,VWS V13.01,2013-07-09 20:38:00,
2013-07-09 15:43:00,103.2,76.4,29.93,NNW,331,0.0,0.0,43,0.00,,SKC,0.01,VWS V13.01,2013-07-09 20:43:00,
2013-07-09 15:49:00,106.0,76.7,29.93,NNW,332,0.0,0.0,40,0.00,,SKC,0.01,VWS V13.01,2013-07-09 20:49:00,
2013-07-09 15:54:00,106.0,76.7,29.93,NNE,33,1.0,3.0,40,0.00,,SKC,0.01,VWS V13.01,2013-07-09 20:54:00,
2013-07-09 15:59:00,106.4,76.3,29.93,NNE,33,0.0,0.0,39,0.00,,SKC,0.01,VWS V13.01,2013-07-09 20:59:00,
2013-07-09 16:04:00,104.4,76.7,29.93,NE,35,0.0,2.0,42,0.00,,SKC,0.01,VWS V13.01,2013-07-09 21:04:00,
2013-07-09 16:09:00,104.4,77.4,29.93,NE,35,0.0,0.0,43,0.00,,SKC,0.01,VWS V13.01,2013-07-09 21:09:00,
2013-07-09 16:14:00,103.0,77.6,29.93,NNE,25,0.0,0.0,45,0.00,,SKC,0.01,VWS V13.01,2013-07-09 21:14:00,
2013-07-09 16:19:00,103.1,79.0,29.92,NNE,25,0.0,0.0,47,0.00,,SKC,0.01,VWS V13.01,2013-07-09 21:19:00,
2013-07-09 16:24:00,104.8,77.8,29.92,NNE,25,0.0,0.0,43,0.00,,SKC,0.01,VWS V13.01,2013-07-09 21:24:00,
2013-07-09 16:29:00,104.6,76.2,29.93,West,277,0.0,2.0,41,0.00,,SKC,0.01,VWS V13.01,2013-07-09 21:29:00,
2013-07-09 16:34:00,101.7,77.1,29.92,West,281,1.0,1.0,46,0.00,,SKC,0.01,VWS V13.01,2013-07-09 21:34:00,
2013-07-09 16:39:00,100.4,77.2,29.92,West,281,0.0,0.0,48,0.00,,SKC,0.01,VWS V13.01,2013-07-09 21:39:00,
2013-07-09 16:44:00,99.5,75.7,29.92,SW,226,0.0,0.0,47,0.00,,SKC,0.01,VWS V13.01,2013-07-09 21:44:00,
2013-07-09 16:49:00,98.9,75.8,29.92,SSW,199,0.0,0.0,48,0.00,,SKC,0.01,VWS V13.01,2013-07-09 21:49:00,
2013-07-09 16:54:00,99.2,75.4,29.93,SSW,199,0.0,0.0,47,0.00,,SKC,0.01,VWS V13.01,2013-07-09 21:54:00,
2013-07-09 16:59:00,100.5,74.6,29.92,SW,216,0.0,1.0,44,0.00,,SKC,0.01,VWS V13.01,2013-07-09 21:59:00,
2013-07-09 17:04:00,101.3,76.0,29.92,West,274,4.0,4.0,45,0.00,,SKC,0.01,VWS V13.01,2013-07-09 22:04:00,
2013-07-09 17:09:00,102.5,75.7,29.93,WNW,297,0.0,0.0,43,0.00,,SKC,0.01,VWS V13.01,2013-07-09 22:09:00,
2013-07-09 17:14:00,104.1,75.7,29.92,North,349,0.0,0.0,41,0.00,,SKC,0.01,VWS V13.01,2013-07-09 22:14:00,
2013-07-09 17:19:00,106.2,76.1,29.92,North,349,1.0,2.0,39,0.00,,SKC,0.01,VWS V13.01,2013-07-09 22:19:00,
2013-07-09 17:25:00,106.0,75.9,29.92,ENE,63,0.0,0.0,39,0.00,,SKC,0.01,VWS V13.01,2013-07-09 22:25:00,
2013-07-09 17:30:00,105.2,76.7,29.92,NE,46,0.0,0.0,41,0.00,,SKC,0.01,VWS V13.01,2013-07-09 22:30:00,
2013-07-09 17:35:00,104.3,75.2,29.92,NE,38,0.0,1.0,40,0.00,,SKC,0.01,VWS V13.01,2013-07-09 22:35:00,
2013-07-09 17:40:00,104.1,75.7,29.92,NNW,346,2.0,4.0,41,0.00,,SKC,0.01,VWS V13.01,2013-07-09 22:40:00,
2013-07-09 17:45:00,104.4,76.7,29.92,NNE,30,1.0,1.0,42,0.00,,SKC,0.01,VWS V13.01,2013-07-09 22:45:00,
2013-07-09 17:50:00,104.7,76.3,29.92,NNW,331,0.0,1.0,41,0.00,,SKC,0.01,VWS V13.01,2013-07-09 22:50:00,
2013-07-09 17:56:00,104.9,76.5,29.92,North,349,2.0,2.0,41,0.00,,SKC,0.01,VWS V13.01,2013-07-09 22:56:00,
2013-07-09 18:01:00,104.4,76.0,29.92,NNW,341,0.0,5.0,41,0.00,,SKC,0.01,VWS V13.01,2013-07-09 23:01:00,
2013-07-09 18:06:00,103.6,75.3,29.92,NNE,27,0.0,4.0,41,0.00,,SKC,0.01,VWS V13.01,2013-07-09 23:06:00,
2013-07-09 18:11:00,103.4,75.8,29.92,North,8,2.0,2.0,42,0.00,,SKC,0.01,VWS V13.01,2013-07-09 23:11:00,
2013-07-09 18:16:00,102.8,76.0,29.92,NNE,27,3.0,4.0,43,0.00,,SKC,0.01,VWS V13.01,2013-07-09 23:16:00,
2013-07-09 18:21:00,102.4,76.3,29.92,NE,38,7.0,10.0,44,0.00,,SKC,0.01,VWS V13.01,2013-07-09 23:21:00,
2013-07-09 18:26:00,101.9,75.2,29.92,NNW,347,6.0,7.0,43,0.00,,SKC,0.01,VWS V13.01,2013-07-09 23:26:00,
2013-07-09 18:31:00,101.3,75.4,29.92,NNW,341,6.0,8.0,44,0.00,,SKC,0.01,VWS V13.01,2013-07-09 23:31:00,
2013-07-09 18:36:00,100.4,75.2,29.92,North,8,4.0,4.0,45,0.00,,SKC,0.01,VWS V13.01,2013-07-09 23:36:00,
2013-07-09 18:41:00,100.1,75.6,29.92,NNE,33,5.0,8.0,46,0.00,,SKC,0.01,VWS V13.01,2013-07-09 23:41:00,
2013-07-09 18:46:00,100.1,74.9,29.92,North,3,4.0,7.0,45,0.00,,SKC,0.01,VWS V13.01,2013-07-09 23:46:00,
2013-07-09 18:51:00,99.8,75.3,29.92,North,349,0.0,1.0,46,0.00,,SKC,0.01,VWS V13.01,2013-07-09 23:51:00,
2013-07-09 18:56:00,100.1,75.6,29.92,NE,43,4.0,4.0,46,0.00,,SKC,0.01,VWS V13.01,2013-07-09 23:56:00,
2013-07-09 19:01:00,99.8,75.3,29.93,NNE,31,0.0,4.0,46,0.00,,SKC,0.01,VWS V13.01,2013-07-10 00:01:00,
2013-07-09 19:06:00,99.9,76.1,29.93,NNE,27,0.0,0.0,47,0.00,,SKC,0.01,VWS V13.01,2013-07-10 00:06:00,
2013-07-09 19:11:00,100.1,75.6,29.93,NNE,31,3.0,6.0,46,0.00,,SKC,0.01,VWS V13.01,2013-07-10 00:11:00,
2013-07-09 19:16:00,99.2,74.8,29.93,NE,34,2.0,8.0,46,0.00,,SKC,0.01,VWS V13.01,2013-07-10 00:16:00,
2013-07-09 19:21:00,98.5,74.2,29.93,NNE,31,0.0,5.0,46,0.00,,SKC,0.01,VWS V13.01,2013-07-10 00:21:00,
2013-07-09 19:26:00,98.1,74.4,29.93,North,352,4.0,6.0,47,0.00,,SKC,0.01,VWS V13.01,2013-07-10 00:26:00,
2013-07-09 19:31:00,97.6,74.0,29.93,NNE,21,2.0,3.0,47,0.00,,SKC,0.01,VWS V13.01,2013-07-10 00:31:00,
2013-07-09 19:36:00,97.1,74.2,29.93,NNE,27,0.0,3.0,48,0.00,,SKC,0.01,VWS V13.01,2013-07-10 00:36:00,
2013-07-09 19:41:00,96.5,74.2,29.93,NNE,27,4.0,8.0,49,0.00,,SKC,0.01,VWS V13.01,2013-07-10 00:41:00,
2013-07-09 19:46:00,96.0,75.0,29.93,NE,46,0.0,2.0,51,0.00,,SKC,0.01,VWS V13.01,2013-07-10 00:46:00,
2013-07-09 19:51:00,95.4,75.0,29.93,NE,37,0.0,0.0,52,0.00,,SKC,0.01,VWS V13.01,2013-07-10 00:51:00,
2013-07-09 19:56:00,94.7,74.3,29.93,NE,36,0.0,7.0,52,0.00,,SKC,0.01,VWS V13.01,2013-07-10 00:56:00,
2013-07-09 20:01:00,93.9,74.2,29.93,NNE,27,0.0,2.0,53,0.00,,SKC,0.01,VWS V13.01,2013-07-10 01:01:00,
2013-07-09 20:06:00,93.2,73.5,29.93,NE,52,0.0,0.0,53,0.00,,SKC,0.01,VWS V13.01,2013-07-10 01:06:00,
2013-07-09 20:11:00,92.7,73.6,29.93,NNE,31,0.0,1.0,54,0.00,,SKC,0.01,VWS V13.01,2013-07-10 01:11:00,
2013-07-09 20:16:00,92.4,73.3,29.93,NNE,19,0.0,3.0,54,0.00,,SKC,0.01,VWS V13.01,2013-07-10 01:16:00,
2013-07-09 20:21:00,92.1,73.6,29.93,NNE,25,0.0,0.0,55,0.00,,SKC,0.01,VWS V13.01,2013-07-10 01:21:00,
2013-07-09 20:26:00,91.8,73.9,29.93,NE,43,0.0,2.0,56,0.00,,SKC,0.01,VWS V13.01,2013-07-10 01:26:00,
2013-07-09 20:31:00,91.6,73.7,29.94,NNE,33,0.0,0.0,56,0.00,,SKC,0.01,VWS V13.01,2013-07-10 01:31:00,
2013-07-09 20:36:00,91.5,74.1,29.94,NNE,33,0.0,0.0,57,0.00,,SKC,0.01,VWS V13.01,2013-07-10 01:36:00,
2013-07-09 20:41:00,91.3,75.0,29.94,NE,46,0.0,10.0,59,0.00,,SKC,0.01,VWS V13.01,2013-07-10 01:41:00,
2013-07-09 20:46:00,90.7,74.9,29.95,North,351,2.0,7.0,60,0.00,,SKC,0.01,VWS V13.01,2013-07-10 01:46:00,
2013-07-09 20:51:00,90.2,75.4,29.95,North,352,9.0,9.0,62,0.00,,SKC,0.01,VWS V13.01,2013-07-10 01:51:00,
2013-07-09 20:57:00,89.6,75.3,29.95,NNE,18,1.0,8.0,63,0.00,,SKC,0.01,VWS V13.01,2013-07-10 01:57:00,
2013-07-09 21:02:00,89.2,75.4,29.96,NE,47,2.0,4.0,64,0.00,,SKC,0.01,VWS V13.01,2013-07-10 02:02:00,
2013-07-09 21:07:00,88.8,75.1,29.96,NE,52,0.0,5.0,64,0.00,,SKC,0.01,VWS V13.01,2013-07-10 02:07:00,
2013-07-09 21:12:00,88.4,75.1,29.96,NE,37,5.0,5.0,65,0.00,,SKC,0.01,VWS V13.01,2013-07-10 02:12:00,
2013-07-09 21:18:00,88.1,74.9,29.96,NE,41,0.0,8.0,65,0.00,,SKC,0.01,VWS V13.01,2013-07-10 02:18:00,
2013-07-09 21:23:00,87.8,75.0,29.96,NE,37,7.0,8.0,66,0.00,,SKC,0.01,VWS V13.01,2013-07-10 02:23:00,
2013-07-09 21:29:00,87.4,75.1,29.96,NNE,30,6.0,10.0,67,0.00,,SKC,0.01,VWS V13.01,2013-07-10 02:29:00,
2013-07-09 21:34:00,87.2,74.9,29.96,NNE,30,0.0,4.0,67,0.00,,SKC,0.01,VWS V13.01,2013-07-10 02:34:00,
2013-07-09 21:39:00,87.0,74.7,29.96,NE,52,5.0,9.0,67,0.00,,SKC,0.01,VWS V13.01,2013-07-10 02:39:00,
2013-07-09 21:44:00,86.7,74.4,29.96,NNE,18,1.0,4.0,67,0.00,,SKC,0.01,VWS V13.01,2013-07-10 02:44:00,
2013-07-09 21:49:00,86.6,74.3,29.96,NE,43,5.0,8.0,67,0.00,,SKC,0.01,VWS V13.01,2013-07-10 02:49:00,
2013-07-09 21:54:00,86.4,74.2,29.96,NNE,25,0.0,7.0,67,0.00,,SKC,0.01,VWS V13.01,2013-07-10 02:54:00,
2013-07-09 21:59:00,86.3,74.5,29.96,NE,49,5.0,5.0,68,0.00,,SKC,0.01,VWS V13.01,2013-07-10 02:59:00,
2013-07-09 22:04:00,86.1,74.3,29.96,NE,37,0.0,2.0,68,0.00,,SKC,0.01,VWS V13.01,2013-07-10 03:04:00,
2013-07-09 22:09:00,85.9,74.1,29.96,NE,39,0.0,11.0,68,0.00,,SKC,0.01,VWS V13.01,2013-07-10 03:09:00,
2013-07-09 22:14:00,85.7,73.9,29.97,NNE,32,10.0,14.0,68,0.00,,SKC,0.01,VWS V13.01,2013-07-10 03:14:00,
2013-07-09 22:19:00,85.6,73.8,29.97,NNE,25,5.0,10.0,68,0.00,,SKC,0.01,VWS V13.01,2013-07-10 03:19:00,
2013-07-09 22:24:00,85.4,73.6,29.97,NE,34,1.0,3.0,68,0.00,,SKC,0.01,VWS V13.01,2013-07-10 03:24:00,
2013-07-09 22:29:00,85.3,73.6,29.97,NNE,27,3.0,9.0,68,0.00,,SKC,0.01,VWS V13.01,2013-07-10 03:29:00,
2013-07-09 22:35:00,85.0,73.3,29.97,NE,35,5.0,14.0,68,0.00,,SKC,0.01,VWS V13.01,2013-07-10 03:35:00,
2013-07-09 22:40:00,84.8,73.1,29.97,NE,51,4.0,6.0,68,0.00,,SKC,0.01,VWS V13.01,2013-07-10 03:40:00,
2013-07-09 22:45:00,84.6,72.9,29.98,NE,41,1.0,8.0,68,0.00,,SKC,0.01,VWS V13.01,2013-07-10 03:45:00,
2013-07-09 22:50:00,84.4,72.7,29.98,North,353,0.0,4.0,68,0.00,,SKC,0.01,VWS V13.01,2013-07-10 03:50:00,
2013-07-09 22:55:00,84.3,73.0,29.98,NNE,32,4.0,6.0,69,0.00,,SKC,0.01,VWS V13.01,2013-07-10 03:55:00,
2013-07-09 23:00:00,84.1,72.8,29.98,NNE,24,2.0,5.0,69,0.00,,SKC,0.01,VWS V13.01,2013-07-10 04:00:00,
2013-07-09 23:01:00,84.1,72.8,29.98,NNE,31,1.0,5.0,69,0.00,,SKC,0.01,VWS V13.01,2013-07-10 04:01:00,
2013-07-09 23:02:00,84.1,72.8,29.98,NE,43,6.0,11.0,69,0.00,,SKC,0.01,VWS V13.01,2013-07-10 04:02:00,
2013-07-09 23:04:00,83.9,72.7,29.98,NNE,33,3.0,5.0,69,0.00,,SKC,0.01,VWS V13.01,2013-07-10 04:04:00,
2013-07-09 23:05:00,83.9,72.7,29.98,NE,47,0.0,5.0,69,0.00,,SKC,0.01,VWS V13.01,2013-07-10 04:05:00,
2013-07-09 23:09:00,83.8,72.6,29.98,NNE,33,4.0,12.0,69,0.00,,SKC,0.01,VWS V13.01,2013-07-10 04:09:00,
2013-07-09 23:14:00,83.6,72.4,29.98,NNE,12,4.0,6.0,69,0.00,,SKC,0.01,VWS V13.01,2013-07-10 04:14:00,
2013-07-09 23:19:00,83.5,72.3,29.99,NNE,19,0.0,0.0,69,0.00,,SKC,0.01,VWS V13.01,2013-07-10 04:19:00,
2013-07-09 23:24:00,83.3,72.1,29.99,NNE,17,0.0,6.0,69,0.00,,SKC,0.01,VWS V13.01,2013-07-10 04:24:00,
2013-07-09 23:29:00,83.1,71.9,29.99,NNE,23,5.0,7.0,69,0.00,,SKC,0.01,VWS V13.01,2013-07-10 04:29:00,
2013-07-09 23:34:00,82.9,71.7,30.00,NE,41,2.0,5.0,69,0.00,,SKC,0.01,VWS V13.01,2013-07-10 04:34:00,
2013-07-09 23:39:00,82.7,71.5,30.00,NNE,21,2.0,7.0,69,0.00,,SKC,0.01,VWS V13.01,2013-07-10 04:39:00,
2013-07-09 23:44:00,82.5,71.3,30.00,NNE,18,4.0,7.0,69,0.00,,SKC,0.01,VWS V13.01,2013-07-10 04:44:00,
2013-07-09 23:49:00,82.3,71.1,30.00,NNE,18,5.0,8.0,69,0.00,,SKC,0.01,VWS V13.01,2013-07-10 04:49:00,
2013-07-09 23:54:00,82.2,71.0,30.00,NE,39,1.0,8.0,69,0.00,,SKC,0.01,VWS V13.01,2013-07-10 04:54:00,